VRD108 VOBL-VQPR

Flight info

Callsign VRD108
Flight time N/A
Altitude 35000
Route ANIRO8A ANIRO W47 VVZ W90 ISMON A465 LEMEX/N0449F370 A465 CEA R472 RAJ R598 BOGOP BOGOP1B
Aircraft A320/M-SDE3FGHIRWY/LB1

Departure

Time 2026-05-06 15:09
Airport Kempegowda International Airport Bengaluru (VOBL)

Arrival

Time N/A
Airport Paro International Airport (VQPR)
Time Latitude Longitude Altitude Speed Heading
2026-05-06 14:32 13.20169 77.70958 3011 ft 0 kts 181°
2026-05-06 14:54 13.20170 77.70958 3011 ft 2 kts 181°
2026-05-06 14:54 13.20195 77.70959 3011 ft 4 kts 188°
2026-05-06 14:55 13.20221 77.70965 3011 ft 4 kts 205°
2026-05-06 14:55 13.20240 77.70980 3015 ft 4 kts 254°
2026-05-06 14:55 13.20242 77.70991 3015 ft 1 kts 270°
2026-05-06 14:55 13.20242 77.70992 3015 ft 0 kts 270°
2026-05-06 15:01 13.20242 77.70989 3011 ft 0 kts 270°
2026-05-06 15:01 13.20242 77.70977 3011 ft 3 kts 270°
2026-05-06 15:01 13.20242 77.70952 3011 ft 3 kts 270°
2026-05-06 15:02 13.20243 77.70936 3011 ft 3 kts 271°
2026-05-06 15:02 13.20243 77.70881 3011 ft 11 kts 270°
2026-05-06 15:02 13.20244 77.70804 3011 ft 10 kts 271°
2026-05-06 15:02 13.20244 77.70732 3011 ft 11 kts 270°
2026-05-06 15:03 13.20245 77.70649 3011 ft 12 kts 269°
2026-05-06 15:03 13.20246 77.70551 3011 ft 15 kts 270°
2026-05-06 15:03 13.20247 77.70441 3011 ft 15 kts 272°
2026-05-06 15:03 13.20304 77.70391 3011 ft 11 kts
2026-05-06 15:04 13.20375 77.70392 3011 ft 9 kts
2026-05-06 15:04 13.20431 77.70393 3011 ft 7 kts
2026-05-06 15:04 13.20508 77.70388 3015 ft 15 kts 340°
2026-05-06 15:04 13.20534 77.70294 3012 ft 17 kts 270°
2026-05-06 15:05 13.20537 77.70144 3012 ft 25 kts 269°
2026-05-06 15:05 13.20537 77.69942 3011 ft 29 kts 270°
2026-05-06 15:05 13.20539 77.69734 3011 ft 30 kts 270°
2026-05-06 15:05 13.20540 77.69521 3011 ft 30 kts 270°
2026-05-06 15:06 13.20542 77.69305 3011 ft 30 kts 270°
2026-05-06 15:06 13.20544 77.69088 3011 ft 31 kts 271°
2026-05-06 15:06 13.20546 77.68879 3011 ft 24 kts 270°
2026-05-06 15:06 13.20547 77.68711 3011 ft 23 kts 270°
2026-05-06 15:07 13.20564 77.68624 3013 ft 2 kts 321°
2026-05-06 15:07 13.20571 77.68620 3013 ft 0 kts 330°
2026-05-06 15:07 13.20581 77.68616 3011 ft 5 kts 342°
2026-05-06 15:07 13.20628 77.68616 3012 ft 13 kts
2026-05-06 15:08 13.20714 77.68640 3011 ft 13 kts 65°
2026-05-06 15:08 13.20719 77.68682 3011 ft 1 kts 91°
2026-05-06 15:08 13.20718 77.68862 3011 ft 60 kts 90°
2026-05-06 15:08 13.20712 77.69523 3011 ft 122 kts 90°
2026-05-06 15:09 13.20702 77.70566 3013 ft 169 kts 91°
2026-05-06 15:09 13.20688 77.71853 3273 ft 191 kts 90°
2026-05-06 15:09 13.20794 77.73253 3843 ft 202 kts 78°
2026-05-06 15:09 13.21304 77.74622 4488 ft 208 kts 65°
2026-05-06 15:10 13.22090 77.75920 4983 ft 223 kts 58°
2026-05-06 15:10 13.23014 77.77275 5208 ft 246 kts 57°
2026-05-06 15:10 13.24030 77.78795 5521 ft 266 kts 58°
2026-05-06 15:10 13.25044 77.80398 5924 ft 275 kts 59°
2026-05-06 15:11 13.26051 77.82077 6107 ft 277 kts 60°
2026-05-06 15:11 13.27030 77.83783 6852 ft 278 kts 60°
2026-05-06 15:11 13.27199 77.84071 6964 ft 278 kts 59°